Tracking 20041 objects as of 22-Nov-2019
Live streaming from Space Station
objects crossing your sky now

IRIDIUM 65


IRIDIUM 65 is no longer on orbit
IRIDIUM 65 is classified as:


NORAD ID: 25288
Int'l Code: 1998-021D
Perigee: N/A
Apogee: N/A
Inclination: N/A
Period: N/A
Semi major axis: N/A
RCS: N/A
Launch date: April 7, 1998
Source: United States (US)
Launch site: TYURATAM MISSILE AND SPACE COMPLEX (TTMTR)
Decay date: 2018-07-19
aabbcc
Your satellite tracking list
Your tracking list is empty




NASA's NSSDC Master Catalog

Two Line Element Set (TLE):
1 25288U 98021D   18199.85130241  .14987453 -17330-5  22782-3 0  9992
2 25288  86.3753  56.1745 0054618 105.1049 255.6311 16.41619131 62128
Source of the keplerian elements: AFSPC